Weather History for KICT - October, 2010

Change the Weather History Date:

Thursday, October 14, 2010

  Actual Average Record
Temperature  
Mean Temperature 61 °F 59 °F  
Max Temperature 79 °F 70 °F 89 °F (1989)
Min Temperature 42 °F 48 °F 30 °F (1969)
Degree Days  
Heating Degree Days 4 7  
Month to date heating degree days 51 77  
Since 1 July heating degree days 61 120  
Cooling Degree Days 0 1  
Month to date cooling degree days 22 27  
Year to date cooling degree days 2092 1676  
Growing Degree Days 10 (Base 50)    
Moisture  
Dew Point 41 °F    
Average Humidity 54    
Maximum Humidity 83    
Minimum Humidity 25    
Precipitation  
Precipitation 0.00 in 0.09 in 1.77 in (2007)
Month to date precipitation 0.24 1.38  
Year to date precipitation 26.55 28.61  
Snow  
Snow 0.00 in 0.00 in 0.00 in (2007)
Month to date snowfall 0.0 0.0  
Since 1 July snowfall T 0.0  
Since 1 September snowfall T 0.0  
Snow Depth 0.00 in    
Sea Level Pressure  
Sea Level Pressure 30.21 in    
Wind  
Wind Speed 8 mph (SW)    
Max Wind Speed 22 mph    
Max Gust Speed 26 mph    
Visibility 10 miles    
Events      
T = Trace of Precipitation, MM = Missing Value Source: NWS Daily Summary

Daily Weather History Graph

Daily Weather History Graph

Search for Another Location

Airport or City:

Trip Planner

Search our weather history database for the weather conditions in past years. The results will help you decide how hot, cold, wet, or windy it might be!

Date:

Astronomy

Oct. 14, 2010 Rise Set
Actual Time 7:37 AM CDT 6:53 PM CDT
Civil Twilight 7:10 AM CDT 7:20 PM CDT
Nautical Twilight 6:40 AM CDT 7:50 PM CDT
Astronomical Twilight 6:09 AM CDT 8:20 PM CDT
Moon 2:33 PM CDT (10/14) No Moon Set
Length of Visible Light 12h 09m
Length of Day
11h 16m
Waxing Crescent, 48% of the Moon is Illuminated
Oct 14
Waxing Crescent
Oct 14
First Quarter
Oct 22
Full
Oct 30
Last Quarter
Nov 5
New

Hourly Weather History & Observations

Time (CDT) Temp. Windchill Dew Point Humidity Pressure Visibility Wind Dir Wind Speed Gust Speed Precip Events Conditions
12:53 AM 45.0 °F - 39.0 °F 80% 30.33 in 10.0 mi Calm Calm - N/A   Partly Cloudy
1:53 AM 44.1 °F - 37.9 °F 79% 30.32 in 10.0 mi Calm Calm - N/A   Partly Cloudy
2:53 AM 45.0 °F - 37.0 °F 74% 30.32 in 10.0 mi Calm Calm - N/A   Clear
3:53 AM 42.1 °F - 37.0 °F 82% 30.31 in 10.0 mi Calm Calm - N/A   Partly Cloudy
4:53 AM 44.1 °F 41.5 °F 37.0 °F 76% 30.31 in 9.0 mi West 4.6 mph - N/A   Clear
5:53 AM 42.8 °F 41.1 °F 35.6 °F 76% 30.31 in 10.0 mi WSW 3.5 mph - N/A   Partly Cloudy
6:53 AM 44.1 °F 41.5 °F 36.0 °F 73% 30.31 in 10.0 mi WSW 4.6 mph - N/A   Partly Cloudy
7:53 AM 45.0 °F 42.6 °F 36.0 °F 71% 30.32 in 10.0 mi SW 4.6 mph - N/A   Scattered Clouds
8:53 AM 52.0 °F - 41.0 °F 66% 30.32 in 10.0 mi WSW 5.8 mph - N/A   Partly Cloudy
9:53 AM 62.1 °F - 39.0 °F 43% 30.31 in 10.0 mi WSW 12.7 mph - N/A   Partly Cloudy
10:53 AM 68.0 °F - 37.0 °F 32% 30.29 in 10.0 mi SW 17.3 mph - N/A   Partly Cloudy
11:53 AM 71.1 °F - 35.1 °F 27% 30.27 in 10.0 mi SW 17.3 mph - N/A   Partly Cloudy
12:53 PM 73.0 °F - 36.0 °F 26% 30.23 in 10.0 mi SW 19.6 mph 24.2 mph N/A   Partly Cloudy
1:53 PM 75.9 °F - 39.0 °F 26% 30.19 in 10.0 mi SSW 17.3 mph 26.5 mph N/A   Partly Cloudy
2:53 PM 78.1 °F - 42.1 °F 28% 30.13 in 10.0 mi SW 17.3 mph 25.3 mph N/A   Partly Cloudy
3:53 PM 78.1 °F - 43.0 °F 29% 30.12 in 10.0 mi WSW 16.1 mph - N/A   Partly Cloudy
4:53 PM 79.0 °F - 44.1 °F 29% 30.08 in 10.0 mi SW 15.0 mph 25.3 mph N/A   Partly Cloudy
5:53 PM 77.0 °F - 46.0 °F 33% 30.07 in 10.0 mi SW 15.0 mph - N/A   Partly Cloudy
6:53 PM 72.0 °F - 46.0 °F 40% 30.06 in 10.0 mi SSW 11.5 mph - N/A   Partly Cloudy
7:53 PM 66.9 °F - 46.9 °F 49% 30.07 in 10.0 mi WSW 6.9 mph - N/A   Partly Cloudy
8:53 PM 61.0 °F - 46.9 °F 60% 30.08 in 10.0 mi SW 4.6 mph - N/A   Clear
9:53 PM 61.0 °F - 46.9 °F 60% 30.09 in 10.0 mi SSW 3.5 mph - N/A   Clear
10:53 PM 59.0 °F - 46.0 °F 62% 30.09 in 10.0 mi Calm Calm - N/A   Clear
11:53 PM 53.1 °F - 46.9 °F 80% 30.09 in 10.0 mi Calm Calm - N/A   Clear